Weather History for El Dorado, AR

Change the Weather History Date:

Monday, June 3, 2013

  Actual Average Record
Temperature  
Mean Temperature 73 °F 76 °F  
Max Temperature 83 °F 87 °F 100 °F (1977)
Min Temperature 63 °F 65 °F 49 °F (1970)
Degree Days  
Heating Degree Days 0 0  
Month to date heating degree days 0 0  
Since 1 June heating degree days 0 0  
Since 1 July heating degree days 2712 2673  
Cooling Degree Days 8 11  
Month to date cooling degree days 29 32  
Year to date cooling degree days 307 343  
Since 1 June cooling degree days 29 32  
Growing Degree Days 22 (Base 50)    
Moisture  
Dew Point 62 °F    
Average Humidity 72    
Maximum Humidity 100    
Minimum Humidity 43    
Precipitation  
Precipitation 0.00 in 0.14 in 5.02 in (1990)
Month to date precipitation 3.44 0.44  
Year to date precipitation 20.53 23.42  
Snow  
Snow 0.00 in - - ()
Month to date snowfall 0.0  
Since 1 June snowfall 0.0  
Since 1 July snowfall 0.1  
Snow Depth 0.00 in    
Sea Level Pressure  
Sea Level Pressure 29.96 in    
Wind  
Wind Speed 4 mph (NNE)    
Max Wind Speed 13 mph    
Max Gust Speed 15 mph    
Visibility 10 miles    
Events      
T = Trace of Precipitation, MM = Missing Value Source: NWS Daily Summary

Daily Weather History Graph

Daily Weather History Graph

Search for Another Location

Airport:

Trip Planner

Search our weather history database for the weather conditions in past years. The results will help you decide how hot, cold, wet, or windy it might be!

Date:

Astronomy

Jun. 03, 2013 Rise Set
Actual Time 6:02 AM CDT 8:16 PM CDT
Civil Twilight 5:34 AM CDT 8:45 PM CDT
Nautical Twilight 4:59 AM CDT 9:20 PM CDT
Astronomical Twilight 4:21 AM CDT 9:57 PM CDT
Moon 2:47 AM CDT (6/3) 3:58 PM CDT (6/3)
Length of Visible Light 15h 11m
Length of Day
14h 14m
Waning Crescent, 22% of the Moon is Illuminated
Jun 3
Waning Crescent
Jun 8
New
Jun 16
First Quarter
Jun 23
Full
Jun 29
Last Quarter

Hourly Weather History & Observations

Time (CDT) Temp. Heat Index Dew Point Humidity Pressure Visibility Wind Dir Wind Speed Gust Speed Precip Events Conditions
12:53 AM 64.9 °F - 64.0 °F 97% 29.94 in 10.0 mi Calm Calm - N/A   Clear
1:53 AM 64.9 °F - 64.0 °F 97% 29.95 in 10.0 mi North 3.5 mph - N/A   Clear
2:53 AM 66.0 °F - 64.0 °F 93% 29.97 in 10.0 mi NNE 8.1 mph - N/A   Mostly Cloudy
3:53 AM 64.9 °F - 63.0 °F 93% 29.97 in 10.0 mi NNE 4.6 mph - N/A   Mostly Cloudy
4:53 AM 64.0 °F - 63.0 °F 96% 29.99 in 10.0 mi NNW 3.5 mph - N/A   Scattered Clouds
5:53 AM 63.0 °F - 62.1 °F 97% 29.99 in 10.0 mi North 4.6 mph - N/A   Mostly Cloudy
6:53 AM 64.0 °F - 62.1 °F 93% 30.01 in 10.0 mi NE 4.6 mph - N/A   Mostly Cloudy
7:53 AM 66.0 °F - 62.1 °F 87% 30.02 in 10.0 mi NE 10.4 mph - N/A   Clear
8:53 AM 69.1 °F - 60.1 °F 73% 30.01 in 10.0 mi NE 10.4 mph - N/A   Clear
9:53 AM 73.0 °F - 62.1 °F 68% 30.01 in 10.0 mi Variable 4.6 mph - N/A   Clear
10:53 AM 75.0 °F - 63.0 °F 66% 30.00 in 10.0 mi Variable 4.6 mph - N/A   Clear
11:53 AM 77.0 °F - 63.0 °F 62% 29.99 in 10.0 mi Variable 3.5 mph - N/A   Clear
12:53 PM 79.0 °F - 63.0 °F 58% 29.97 in 10.0 mi NNE 4.6 mph - N/A   Scattered Clouds
1:53 PM 81.0 °F 81.9 °F 62.1 °F 52% 29.96 in 10.0 mi NNE 5.8 mph - N/A   Mostly Cloudy
2:53 PM 82.9 °F 83.3 °F 61.0 °F 47% 29.94 in 10.0 mi Calm Calm - N/A   Scattered Clouds
3:53 PM 82.9 °F 83.2 °F 60.1 °F 46% 29.92 in 10.0 mi North 5.8 mph - N/A   Partly Cloudy
4:53 PM 82.9 °F 82.6 °F 57.9 °F 42% 29.91 in 10.0 mi Calm Calm - N/A   Clear
5:53 PM 82.0 °F 82.1 °F 59.0 °F 45% 29.91 in 10.0 mi NNE 4.6 mph - N/A   Partly Cloudy
6:53 PM 80.1 °F 81.1 °F 61.0 °F 52% 29.91 in 10.0 mi ENE 8.1 mph - N/A   Clear
7:53 PM 75.9 °F - 64.0 °F 67% 29.91 in 10.0 mi NNE 3.5 mph - N/A   Clear
8:53 PM 69.1 °F - 64.9 °F 87% 29.91 in 10.0 mi Calm Calm - N/A   Clear
9:53 PM 68.0 °F - 64.0 °F 87% 29.94 in 10.0 mi Calm Calm - N/A   Clear
10:53 PM 66.0 °F - 64.0 °F 93% 29.95 in 10.0 mi Calm Calm - N/A   Clear
11:53 PM 64.9 °F - 63.0 °F 93% 29.96 in 10.0 mi Calm Calm - N/A   Clear